FHA6105 LSZB-LFML

Flight info

Callsign FHA6105
Flight time 0h 51m
Altitude 35000
Route AMRID3B AMRID Z60 VADAR DCT WEBCA DCT BALSI BALSI1R
Aircraft A320/M-SDE3FGHIRWY/LB1

Departure

Time 2026-05-04 17:26
Airport Bern Airport (LSZB)

Arrival

Time 2026-05-04 18:18
Airport Marseille Provence Airport (LFML)
Time Latitude Longitude Altitude Speed Heading
2026-05-04 17:10 46.91272 7.50135 1709 ft 0 kts 96°
2026-05-04 17:22 46.91270 7.50140 1713 ft 3 kts 115°
2026-05-04 17:23 46.91129 7.50216 1731 ft 13 kts 143°
2026-05-04 17:23 46.91069 7.50177 1732 ft 8 kts 213°
2026-05-04 17:23 46.90985 7.50235 1731 ft 7 kts 139°
2026-05-04 17:24 46.90944 7.50287 1728 ft 9 kts 139°
2026-05-04 17:24 46.90832 7.50427 1728 ft 5 kts 140°
2026-05-04 17:25 46.90773 7.50498 1723 ft 20 kts 140°
2026-05-04 17:25 46.90725 7.50551 1726 ft 3 kts 336°
2026-05-04 17:26 46.91269 7.49887 1686 ft 127 kts 320°
2026-05-04 17:26 46.93841 7.46737 3832 ft 178 kts 319°
2026-05-04 17:27 46.95815 7.44383 5159 ft 188 kts 320°
2026-05-04 17:27 46.97833 7.41831 6243 ft 198 kts 304°
2026-05-04 17:28 46.97824 7.38074 7355 ft 194 kts 229°
2026-05-04 17:29 46.94841 7.34264 9254 ft 191 kts 219°
2026-05-04 17:29 46.91346 7.31175 10515 ft 222 kts 204°
2026-05-04 17:30 46.86439 7.27988 11398 ft 293 kts 205°
2026-05-04 17:31 46.82416 7.25375 11888 ft 338 kts 205°
2026-05-04 17:31 46.76908 7.19105 13765 ft 356 kts 246°
2026-05-04 17:32 46.75160 7.12325 15046 ft 362 kts 249°
2026-05-04 17:33 46.72557 7.01938 16915 ft 369 kts 248°
2026-05-04 17:33 46.71653 6.98374 17503 ft 372 kts 248°
2026-05-04 17:34 46.68907 6.87693 19053 ft 382 kts 248°
2026-05-04 17:34 46.67894 6.84100 19506 ft 385 kts 240°
2026-05-04 17:35 46.61796 6.76850 20946 ft 393 kts 197°
2026-05-04 17:35 46.56299 6.76546 21893 ft 402 kts 177°
2026-05-04 17:35 46.53501 6.76908 22378 ft 404 kts 178°
2026-05-04 17:36 46.50690 6.77268 22851 ft 406 kts 178°
2026-05-04 17:36 46.47873 6.77630 23301 ft 408 kts 178°
2026-05-04 17:36 46.45070 6.77988 23717 ft 410 kts 178°
2026-05-04 17:36 46.42226 6.78348 24080 ft 412 kts 178°
2026-05-04 17:37 46.39363 6.78711 24446 ft 414 kts 178°
2026-05-04 17:37 46.36506 6.79077 24803 ft 416 kts 178°
2026-05-04 17:37 46.33624 6.79447 25093 ft 417 kts 177°
2026-05-04 17:37 46.30729 6.79815 25454 ft 419 kts 177°
2026-05-04 17:38 46.27827 6.80180 25834 ft 420 kts 178°
2026-05-04 17:38 46.24904 6.80540 26126 ft 422 kts 178°
2026-05-04 17:38 46.21963 6.80900 26446 ft 425 kts 178°
2026-05-04 17:38 46.19051 6.81257 26752 ft 427 kts 177°
2026-05-04 17:39 46.13115 6.81972 27371 ft 429 kts 181°
2026-05-04 17:39 46.10145 6.81719 27672 ft 428 kts 191°
2026-05-04 17:39 46.07260 6.80670 27973 ft 428 kts 201°
2026-05-04 17:40 46.04570 6.78870 28273 ft 428 kts 211°
2026-05-04 17:40 46.02149 6.76365 28645 ft 429 kts 221°
2026-05-04 17:40 46.00041 6.73334 29059 ft 428 kts 225°
2026-05-04 17:40 45.98018 6.70286 29551 ft 425 kts 225°
2026-05-04 17:41 45.95979 6.67226 30041 ft 423 kts 225°
2026-05-04 17:41 45.93945 6.64186 30438 ft 421 kts 225°
2026-05-04 17:41 45.91920 6.61168 30837 ft 419 kts 225°
2026-05-04 17:41 45.89904 6.58169 31204 ft 417 kts 225°
2026-05-04 17:42 45.87887 6.55171 31579 ft 415 kts 225°
2026-05-04 17:42 45.85900 6.52222 31971 ft 413 kts 225°
2026-05-04 17:42 45.83902 6.49255 32382 ft 412 kts 226°
2026-05-04 17:42 45.81959 6.46378 32786 ft 410 kts 226°
2026-05-04 17:43 45.79940 6.43390 33183 ft 407 kts 226°
2026-05-04 17:43 45.77975 6.40479 33586 ft 406 kts 226°
2026-05-04 17:43 45.76010 6.37568 34010 ft 403 kts 226°
2026-05-04 17:43 45.74070 6.34695 34305 ft 402 kts 226°
2026-05-04 17:44 45.72154 6.31859 34622 ft 401 kts 226°
2026-05-04 17:44 45.70215 6.28995 34899 ft 401 kts 226°
2026-05-04 17:44 45.68267 6.26123 35027 ft 403 kts 226°
2026-05-04 17:44 45.66311 6.23251 35036 ft 403 kts 226°
2026-05-04 17:45 45.62396 6.17510 35039 ft 403 kts 226°
2026-05-04 17:45 45.58483 6.11775 35033 ft 404 kts 226°
2026-05-04 17:46 45.54562 6.06031 35035 ft 403 kts 226°
2026-05-04 17:46 45.50669 6.00342 35035 ft 404 kts 226°
2026-05-04 17:47 45.46735 5.94628 35037 ft 404 kts 226°
2026-05-04 17:47 45.42787 5.88953 35030 ft 404 kts 226°
2026-05-04 17:48 45.38830 5.83284 35022 ft 404 kts 225°
2026-05-04 17:48 45.34892 5.77653 35047 ft 404 kts 225°
2026-05-04 17:49 45.30925 5.71996 35041 ft 404 kts 225°
2026-05-04 17:49 45.26959 5.66365 35040 ft 404 kts 225°
2026-05-04 17:50 45.22987 5.60715 34339 ft 408 kts 225°
2026-05-04 17:50 45.20969 5.57838 33379 ft 413 kts 225°
2026-05-04 17:50 45.18935 5.54946 32484 ft 415 kts 225°
2026-05-04 17:51 45.16893 5.52051 31583 ft 417 kts 224°
2026-05-04 17:51 45.14833 5.49140 30678 ft 419 kts 224°
2026-05-04 17:51 45.12754 5.46211 29579 ft 425 kts 224°
2026-05-04 17:51 45.10672 5.43280 28567 ft 427 kts 224°
2026-05-04 17:52 45.08567 5.40318 28236 ft 429 kts 224°
2026-05-04 17:52 45.06445 5.37333 27965 ft 431 kts 224°
2026-05-04 17:52 45.04314 5.34340 27730 ft 432 kts 224°
2026-05-04 17:52 45.02178 5.31339 27329 ft 433 kts 224°
2026-05-04 17:53 45.00037 5.28333 26950 ft 435 kts 224°
2026-05-04 17:53 44.97891 5.25321 26566 ft 436 kts 224°
2026-05-04 17:53 44.95734 5.22298 26180 ft 438 kts 224°
2026-05-04 17:53 44.93564 5.19265 25793 ft 440 kts 224°
2026-05-04 17:54 44.91395 5.16234 25407 ft 439 kts 224°
2026-05-04 17:54 44.89223 5.13198 25017 ft 438 kts 224°
2026-05-04 17:54 44.87067 5.10187 24630 ft 437 kts 224°
2026-05-04 17:54 44.84910 5.07182 24252 ft 436 kts 224°
2026-05-04 17:55 44.82785 5.04224 23871 ft 434 kts 224°
2026-05-04 17:55 44.80641 5.01243 23457 ft 432 kts 224°
2026-05-04 17:55 44.78507 4.98279 23060 ft 430 kts 224°
2026-05-04 17:55 44.76382 4.95336 22700 ft 428 kts 224°
2026-05-04 17:56 44.74268 4.92422 22314 ft 423 kts 223°
2026-05-04 17:56 44.71976 4.89831 21932 ft 421 kts 214°
2026-05-04 17:56 44.69445 4.87772 20921 ft 423 kts 207°
2026-05-04 17:56 44.66808 4.85906 19810 ft 427 kts 207°
2026-05-04 17:57 44.64196 4.84080 19312 ft 418 kts 206°
2026-05-04 17:57 44.61652 4.82307 19172 ft 399 kts 207°
2026-05-04 17:57 44.59223 4.80610 19064 ft 382 kts 207°
2026-05-04 17:57 44.56884 4.78981 18940 ft 366 kts 205°
2026-05-04 17:58 44.54532 4.77805 18808 ft 354 kts 194°
2026-05-04 17:58 44.52136 4.77186 18506 ft 347 kts 191°
2026-05-04 17:58 44.49767 4.76624 18089 ft 343 kts 191°
2026-05-04 17:58 44.47430 4.76073 17704 ft 339 kts 191°
2026-05-04 17:59 44.45106 4.75523 17324 ft 337 kts 191°
2026-05-04 17:59 44.42803 4.74977 16949 ft 335 kts 191°
2026-05-04 17:59 44.38251 4.73899 16224 ft 332 kts 191°
2026-05-04 18:00 44.35973 4.73360 15859 ft 331 kts 191°
2026-05-04 18:00 44.33709 4.72825 15497 ft 329 kts 191°
2026-05-04 18:00 44.31454 4.72293 15135 ft 328 kts 191°
2026-05-04 18:00 44.29209 4.71765 14749 ft 326 kts 191°
2026-05-04 18:01 44.26977 4.71242 14387 ft 325 kts 191°
2026-05-04 18:01 44.24753 4.70721 14027 ft 323 kts 191°
2026-05-04 18:01 44.22543 4.70204 13654 ft 322 kts 191°
2026-05-04 18:02 44.18183 4.69188 12931 ft 318 kts 191°
2026-05-04 18:02 44.16003 4.68684 12597 ft 317 kts 191°
2026-05-04 18:02 44.13832 4.68208 12252 ft 315 kts 187°
2026-05-04 18:02 44.11644 4.68265 11894 ft 315 kts 174°
2026-05-04 18:03 44.09528 4.69043 11539 ft 317 kts 161°
2026-05-04 18:03 44.07490 4.70203 11194 ft 315 kts 160°
2026-05-04 18:03 44.05466 4.71355 10838 ft 314 kts 160°
2026-05-04 18:03 44.03449 4.72497 10488 ft 312 kts 160°
2026-05-04 18:04 44.01472 4.73616 10314 ft 302 kts 160°
2026-05-04 18:04 43.99586 4.74686 10177 ft 291 kts 160°
2026-05-04 18:04 43.95954 4.76738 9837 ft 274 kts 160°
2026-05-04 18:05 43.94186 4.77732 9570 ft 274 kts 160°
2026-05-04 18:05 43.92426 4.78720 9224 ft 272 kts 160°
2026-05-04 18:05 43.90674 4.79707 8867 ft 271 kts 160°
2026-05-04 18:05 43.88932 4.80688 8529 ft 270 kts 160°
2026-05-04 18:06 43.85477 4.82627 7836 ft 266 kts 160°
2026-05-04 18:06 43.83788 4.83577 7495 ft 265 kts 160°
2026-05-04 18:06 43.82088 4.84536 7157 ft 263 kts 159°
2026-05-04 18:07 43.80398 4.85488 6816 ft 261 kts 159°
2026-05-04 18:07 43.78719 4.86431 6484 ft 260 kts 159°
2026-05-04 18:07 43.77047 4.87364 6138 ft 258 kts 159°
2026-05-04 18:07 43.75386 4.88291 5789 ft 257 kts 159°
2026-05-04 18:08 43.73742 4.89211 5456 ft 253 kts 158°
2026-05-04 18:08 43.72122 4.90118 5198 ft 248 kts 159°
2026-05-04 18:08 43.70593 4.90973 5130 ft 232 kts 159°
2026-05-04 18:08 43.69162 4.91774 5047 ft 208 kts 159°
2026-05-04 18:09 43.66731 4.93134 4892 ft 169 kts 159°
2026-05-04 18:09 43.64805 4.94211 4741 ft 136 kts 159°
2026-05-04 18:10 43.63965 4.94681 4673 ft 129 kts 158°
2026-05-04 18:10 43.63143 4.95139 4629 ft 127 kts 158°
2026-05-04 18:10 43.62325 4.95594 4561 ft 127 kts 156°
2026-05-04 18:10 43.61588 4.96211 4513 ft 127 kts 141°
2026-05-04 18:11 43.60920 4.97008 4459 ft 127 kts 139°
2026-05-04 18:11 43.60279 4.97841 4341 ft 126 kts 137°
2026-05-04 18:11 43.59657 4.98688 4196 ft 125 kts 136°
2026-05-04 18:11 43.59048 4.99538 4029 ft 124 kts 135°
2026-05-04 18:12 43.58448 5.00386 3876 ft 122 kts 134°
2026-05-04 18:12 43.57861 5.01220 3721 ft 120 kts 134°
2026-05-04 18:12 43.57287 5.02040 3564 ft 117 kts 133°
2026-05-04 18:12 43.56726 5.02843 3414 ft 116 kts 133°
2026-05-04 18:13 43.56358 5.03370 3305 ft 115 kts 133°
2026-05-04 18:13 43.55624 5.04421 3110 ft 115 kts 132°
2026-05-04 18:13 43.54446 5.06110 2785 ft 132 kts 131°
2026-05-04 18:14 43.53805 5.07027 2595 ft 133 kts 131°
2026-05-04 18:14 43.53162 5.07947 2423 ft 133 kts 131°
2026-05-04 18:14 43.52518 5.08868 2239 ft 133 kts 131°
2026-05-04 18:15 43.51241 5.10694 1910 ft 132 kts 131°
2026-05-04 18:15 43.49979 5.12499 1551 ft 132 kts 131°
2026-05-04 18:15 43.49345 5.13405 1378 ft 131 kts 132°
2026-05-04 18:16 43.48919 5.14012 1260 ft 131 kts 132°
2026-05-04 18:16 43.48082 5.15207 1029 ft 130 kts 133°
2026-05-04 18:16 43.47449 5.16116 824 ft 135 kts 133°
2026-05-04 18:17 43.46150 5.17944 470 ft 134 kts 134°
2026-05-04 18:17 43.45519 5.18867 292 ft 131 kts 131°
2026-05-04 18:17 43.44476 5.20347 44 ft 124 kts 133°
2026-05-04 18:18 43.43942 5.21119 36 ft 31 kts 134°
2026-05-04 18:18 43.43783 5.21348 37 ft 33 kts 133°
2026-05-04 18:18 43.43625 5.21577 36 ft 33 kts 134°
2026-05-04 18:18 43.43464 5.21804 35 ft 33 kts 134°
2026-05-04 18:19 43.43332 5.22141 37 ft 21 kts 90°
2026-05-04 18:19 43.43398 5.22279 37 ft 19 kts 356°
2026-05-04 18:19 43.43516 5.22208 37 ft 18 kts 329°
2026-05-04 18:20 43.43654 5.22105 37 ft 15 kts 346°
2026-05-04 18:20 43.43712 5.22170 37 ft 12 kts 45°
2026-05-04 18:20 43.43795 5.22229 37 ft 14 kts 348°
2026-05-04 18:20 43.43855 5.22203 36 ft 13 kts 338°
2026-05-04 18:21 43.43922 5.22135 37 ft 12 kts 315°
2026-05-04 18:21 43.43973 5.22063 37 ft 9 kts 312°
2026-05-04 18:21 43.44017 5.22057 37 ft 6 kts 29°
2026-05-04 18:21 43.44048 5.22092 37 ft 4 kts 40°
2026-05-04 18:22 43.44052 5.22096 37 ft 0 kts 39°